Simultaneous Nadir Overpasses (SNOs) Predictions

Prediction of SNOs between NOAA-20 and AQUA Satellite Orbit:

Table of predicted SNOs for the next 14.0 days since TLE Epoch: 2/24/2024
Index Date (NOAA-20) Time (NOAA-20) Lat,Lon (NOAA-20) SZA (NOAA-20 ) Date (AQUA) Time (AQUA) Lat,Lon (AQUA) SZA (AQUA ) Distance(km) Time Diff (sec)
1 02/24/2024 13:56:06 -81.10, 69.81 81.46 02/24/2024 13:56:26 -81.10, 69.81 81.48 0.16 20
2 02/24/2024 14:46:48 81.13,-121.79 98.37 02/24/2024 14:45:47 81.14,-121.94 98.43 2.57 61
3 02/27/2024 02:50:01 -81.10,-123.59 82.42 02/27/2024 02:50:38 -81.10,-123.64 82.44 0.91 37
4 02/27/2024 03:40:45 81.11, 44.02 97.52 02/27/2024 03:40:00 81.11, 44.19 97.53 2.92 45
5 02/29/2024 15:43:56 -81.10, 42.96 83.39 02/29/2024 15:44:49 -81.10, 42.81 83.40 2.60 53
6 02/29/2024 16:34:40 81.11,-149.46 96.56 02/29/2024 16:34:11 81.11,-149.40 96.57 0.98 29
7 03/03/2024 04:37:52 -81.09,-150.92 84.31 03/03/2024 04:38:59 -81.09,-150.84 84.37 1.36 67
8 03/03/2024 05:28:34 81.12, 17.39 95.53 03/03/2024 05:28:20 81.12, 17.28 95.56 1.96 14
9 03/05/2024 18:22:28 81.12,-176.19 94.56 03/05/2024 18:22:27 81.12,-176.14 94.55 1.06 1
10 03/08/2024 07:16:24 81.10, -10.20 93.64 03/08/2024 07:16:35 81.10, -10.02 93.60 2.97 11



Historial Predications of SNOs between NOAA-20 and AQUA
